[[{"header":{"parameterUnit":"m.s-1","parameterCategory":1,"la1":30.2991,"la2":30.254,"lo1":-89.0895,"lo2":-89.0444,"dy":0.0017,"dx":0.0017,"nx":28,"ny":28,"refTime":"2025-04-09T21:00:00:Z","depth":0,"parameterNumber":2,"parameterNumberName":"U-component_of_WINDS"},"data":[0,0,0,0,0,0,0,0,0,0,0,0,0,0,0,0,0,0,0,0,0,0,0,0,0,0,0,0,0,0,0,0,0,0,0,0,0,0,0,0,0,0,0,0,0,0,0,0,0,0,0,0,0,0,0,0,0,0,-0.2392,-0.2393,0,-0.2401,-0.2401,-0.2401,-0.2369,-0.2368,-0.2367,-0.2366,-0.2373,-0.2374,-0.2375,0,0,0,0,0,0,0,0,0,0,0,0,0,-0.2348,-0.2349,-0.2392,-0.2393,-0.2393,-0.2401,-0.2401,-0.2401,-0.2369,-0.2368,-0.2367,-0.2366,-0.2373,-0.2374,-0.2375,0,0,0,0,0,0,0,0,0,0,0,0,0,-0.2363,-0.2349,-0.2392,-0.2378,-0.2377,-0.2401,-0.2401,-0.2401,-0.2369,-0.2368,-0.2367,-0.2365,-0.2373,-0.2374,-0.2376,-0.2413,0,0,-0.238,-0.2381,0,0,0,0,0,0,0,0,-0.2362,-0.2364,-0.238,-0.2379,-0.2378,-0.2382,-0.2387,-0.2405,-0.237,-0.2372,-0.2366,-0.2365,-0.2377,-0.2378,-0.2383,-0.2414,-0.2414,-0.2381,-0.2382,-0.2382,-0.2383,0,0,0,0,0,0,0,-0.2361,-0.2364,-0.2396,-0.238,-0.2379,-0.237,-0.2371,-0.2391,-0.2382,-0.2372,-0.237,-0.2371,-0.2376,-0.2382,-0.2383,-0.2414,-0.2381,-0.2382,-0.2383,-0.2384,-0.2476,-0.2477,0,0,0,0,0,0,-0.2362,-0.2363,-0.2395,-0.2396,-0.2366,-0.2372,-0.2373,-0.2382,-0.2382,-0.2381,-0.2372,-0.237,-0.238,-0.2381,-0.2383,-0.2427,-0.2382,-0.2384,-0.2385,-0.2474,-0.2476,-0.2478,0,0,0,0,0,0,-0.2361,-0.2365,-0.2395,-0.2379,-0.2382,-0.2375,-0.2385,-0.2383,-0.2388,-0.2382,-0.2381,-0.2379,-0.2378,-0.2381,-0.2406,-0.2427,-0.2384,-0.2386,-0.2472,-0.2475,-0.2477,-0.2516,0,0,0,0,0,0,-0.236,-0.2365,-0.238,-0.238,-0.2383,-0.2419,-0.2387,-0.2384,-0.2391,-0.2388,-0.2388,-0.2387,-0.2378,-0.2404,-0.2408,-0.2428,-0.2387,-0.2471,-0.2474,-0.2476,-0.2513,-0.2519,-0.2525,0,0,0,0,0,-0.2359,-0.239,-0.2381,-0.2385,-0.2401,-0.242,-0.2422,-0.2411,-0.2393,-0.2407,-0.2404,-0.2387,-0.2424,-0.2407,-0.2411,-0.2432,-0.2469,-0.2473,-0.2476,-0.251,-0.2518,-0.2524,0,0,0,0,0,0,-0.2393,-0.239,-0.2379,-0.2412,-0.2417,-0.2415,-0.2432,-0.2419,-0.2428,-0.2425,-0.241,-0.241,-0.2438,-0.2437,-0.2418,-0.2468,-0.2443,-0.2448,-0.2468,-0.2475,-0.2481,-0.2481,-0.2388,0,0,0,0,0,-0.2405,-0.242,-0.2416,-0.2446,-0.2448,-0.244,-0.2448,-0.2439,-0.2442,-0.2444,-0.2442,-0.2446,-0.2458,-0.2467,-0.2478,-0.2512,-0.2512,-0.2529,-0.2535,-0.254,-0.2544,-0.2561,-0.2569,-0.2489,-0.2489,-0.2489,0,0,-0.2428,-0.2429,-0.2439,-0.2453,-0.2455,-0.2471,-0.2442,-0.246,-0.2472,-0.2447,-0.247,-0.2469,-0.2472,-0.2502,-0.2515,-0.2503,-0.2566,-0.2544,-0.2548,-0.2549,-0.2566,-0.2573,-0.258,-0.2491,-0.2491,-0.249,0,0,-0.248,-0.2482,-0.2506,-0.2509,-0.2513,-0.2507,-0.2513,-0.2513,-0.2511,-0.2535,-0.2516,-0.2529,-0.2551,-0.2554,-0.2559,-0.2611,-0.2596,-0.2615,-0.2646,-0.2663,-0.267,-0.2675,-0.2694,-0.2701,-0.2618,-0.2619,-0.2619,0,-0.2509,-0.2533,-0.252,-0.254,-0.2546,-0.2524,-0.2548,-0.2551,-0.2559,-0.2563,-0.2549,-0.2575,-0.2576,-0.2606,-0.2619,-0.2623,-0.2629,-0.2615,-0.267,-0.2675,-0.268,-0.2698,-0.2705,-0.2621,-0.2621,-0.262,-0.262,0,-0.2568,-0.2585,-0.2604,-0.2612,-0.262,-0.2642,-0.2632,-0.2642,-0.2632,-0.2627,-0.2651,-0.2651,-0.2662,-0.2668,-0.2658,-0.2697,-0.2689,-0.2673,-0.2647,-0.2691,-0.2707,-0.2713,-0.2624,-0.2623,-0.2623,-0.2622,0,0,-0.2642,-0.2642,-0.2649,-0.2653,-0.2655,-0.2668,-0.2688,-0.2699,-0.2707,-0.2713,-0.2729,-0.2748,-0.2733,-0.2738,-0.2728,-0.2743,-0.2784,-0.2725,-0.2725,-0.2736,-0.2826,-0.2839,-0.2847,-0.2774,-0.2775,-0.2776,-0.2826,0,-0.2692,-0.2728,-0.2717,-0.2752,-0.2767,-0.2747,-0.2764,-0.2767,-0.2764,-0.2775,-0.2771,-0.2784,-0.2763,-0.2766,-0.2781,-0.2776,-0.2802,-0.2773,-0.2789,-0.279,-0.2789,-0.2855,-0.2868,-0.2915,-0.2832,-0.2833,-0.2834,0,-0.2756,-0.2764,-0.2802,-0.2801,-0.2807,-0.2823,-0.2832,-0.2844,-0.2846,-0.2842,-0.2848,-0.2835,-0.2854,-0.2829,-0.2855,-0.2835,-0.2841,-0.284,-0.2842,-0.2843,-0.2815,-0.2858,-0.293,-0.2937,-0.2844,-0.2843,-0.2842,0,-0.2806,-0.2827,-0.2851,-0.2855,-0.2855,-0.2867,-0.2867,-0.2869,-0.2876,-0.2883,-0.2887,-0.2897,-0.2902,-0.2909,-0.2899,-0.2881,-0.2926,-0.29,-0.2923,-0.2924,-0.2934,-0.2934,-0.3008,-0.2938,-0.2938,-0.2938,-0.2938,0,-0.2864,-0.2887,-0.2874,-0.2889,-0.2915,-0.2901,-0.2927,-0.2925,-0.2926,-0.294,-0.2923,-0.2936,-0.2922,-0.2934,-0.2926,-0.2949,-0.2951,-0.2948,-0.2946,-0.295,-0.295,-0.2954,-0.295,-0.294,-0.2939,-0.2939,-0.2939,0,-0.2924,-0.2916,-0.2942,-0.294,-0.294,-0.2959,-0.2956,-0.297,-0.2965,-0.2983,-0.2986,-0.2978,-0.2991,-0.2982,-0.2995,-0.2989,-0.302,-0.3012,-0.3019,-0.3017,-0.3041,-0.3039,-0.312,-0.313,-0.3054,-0.3054,-0.3055,0,-0.2961,-0.2979,-0.2979,-0.2987,-0.2989,-0.3003,-0.301,-0.2997,-0.3005,-0.3009,-0.3022,-0.3034,-0.3043,-0.3065,-0.306,-0.307,-0.3063,-0.309,-0.3064,-0.3067,-0.3063,-0.3062,-0.3064,-0.3096,-0.3097,-0.3097,-0.3098,0,-0.3028,-0.3024,-0.3034,-0.3044,-0.3053,-0.306,-0.3065,-0.3073,-0.306,-0.307,-0.3083,-0.309,-0.3103,-0.3115,-0.3123,-0.3123,-0.3108,-0.3106,-0.3112,-0.3117,-0.3119,-0.3118,-0.3033,-0.3105,-0.3104,-0.3103,-0.3103,-0.3103,-0.3078,-0.3093,-0.3095,-0.3108,-0.311,-0.3116,-0.3128,-0.3125,-0.3136,-0.3146,-0.3138,-0.3154,-0.3155,-0.3165,-0.3166,-0.3178,-0.3167,-0.3175,-0.3178,-0.318,-0.3183,-0.3118,-0.318,-0.3179,-0.3179,-0.3179,-0.3179,0,-0.3144,-0.3144,-0.3156,-0.3164,-0.3174,-0.316,-0.3165,-0.3174,-0.3188,-0.3191,-0.32,-0.3216,-0.3227,-0.3223,-0.3232,-0.3243,-0.3236,-0.3246,-0.3245,-0.3245,-0.3193,-0.3187,-0.3251,-0.3251,-0.3251,-0.3251,-0.3251,-0.3251,-0.318,-0.3204,-0.3199,-0.3223,-0.3223,-0.3239,-0.3243,-0.3248,-0.325,-0.3268,-0.3277,-0.3275,-0.3275,-0.3284,-0.3294,-0.3292,-0.3296,-0.3308,-0.3304,-0.3256,-0.3249,-0.3242,-0.3236,-0.331,-0.331,-0.3355,-0.3356,-0.3356]},{"header":{"parameterUnit":"m.s-1","parameterCategory":1,"la1":30.2991,"la2":30.254,"lo1":-89.0895,"lo2":-89.0444,"dy":0.0017,"dx":0.0017,"nx":28,"ny":28,"refTime":"2025-04-09T21:00:00:Z","depth":0,"parameterNumber":3,"parameterNumberName":"V-component_of_WINDS"},"data":[0,0,0,0,0,0,0,0,0,0,0,0,0,0,0,0,0,0,0,0,0,0,0,0,0,0,0,0,0,0,0,0,0,0,0,0,0,0,0,0,0,0,0,0,0,0,0,0,0,0,0,0,0,0,0,0,0,0,0.6529,0.653,0,0.6609,0.661,0.6611,0.6656,0.6656,0.6656,0.6656,0.6737,0.6739,0.6741,0,0,0,0,0,0,0,0,0,0,0,0,0,0.6412,0.6414,0.6529,0.653,0.6531,0.6609,0.661,0.6611,0.6656,0.6656,0.6656,0.6656,0.6736,0.6739,0.6741,0,0,0,0,0,0,0,0,0,0,0,0,0,0.6474,0.6415,0.6529,0.6563,0.6567,0.6608,0.661,0.6611,0.6656,0.6656,0.6656,0.6656,0.6736,0.6739,0.6742,0.6756,0,0,0.6751,0.6752,0,0,0,0,0,0,0,0,0.6471,0.6479,0.6557,0.6561,0.6565,0.6623,0.6598,0.666,0.6655,0.6622,0.6656,0.6656,0.6699,0.6705,0.6719,0.676,0.6763,0.6751,0.6753,0.6754,0.6755,0,0,0,0,0,0,0,0.6466,0.6475,0.6561,0.6558,0.6563,0.6573,0.6582,0.661,0.6658,0.6625,0.6628,0.6637,0.6701,0.6716,0.6721,0.6764,0.6751,0.6754,0.6756,0.6757,0.6815,0.6815,0,0,0,0,0,0,0.6457,0.6472,0.6558,0.6563,0.6517,0.6575,0.6585,0.6604,0.6658,0.6666,0.6637,0.6639,0.6711,0.6718,0.6724,0.6742,0.6754,0.6757,0.6759,0.6815,0.6815,0.6815,0,0,0,0,0,0,0.6454,0.6464,0.6555,0.6518,0.6531,0.6576,0.6597,0.6605,0.6621,0.6667,0.6675,0.6644,0.6711,0.672,0.6747,0.6745,0.6758,0.6761,0.6816,0.6815,0.6815,0.6778,0,0,0,0,0,0,0.6451,0.6463,0.647,0.6518,0.6532,0.6577,0.6597,0.6607,0.6626,0.6629,0.6676,0.6684,0.6712,0.6742,0.675,0.675,0.6763,0.6816,0.6816,0.6815,0.678,0.6776,0.6774,0,0,0,0,0,0.6446,0.6458,0.647,0.6481,0.6542,0.6577,0.6585,0.6618,0.6626,0.6632,0.6661,0.6682,0.6744,0.6744,0.6753,0.6754,0.6816,0.6816,0.6815,0.6781,0.6777,0.6774,0,0,0,0,0,0,0.641,0.6465,0.648,0.6507,0.6536,0.6584,0.6594,0.6613,0.6642,0.6644,0.6683,0.6693,0.6715,0.6737,0.6736,0.6768,0.6782,0.6783,0.6753,0.675,0.6747,0.6741,0.6766,0,0,0,0,0,0.6404,0.6429,0.6475,0.6495,0.6509,0.6548,0.6565,0.6587,0.6619,0.6632,0.6664,0.6694,0.6719,0.6736,0.6763,0.6783,0.6792,0.6788,0.6785,0.6782,0.6782,0.6791,0.6788,0.6813,0.6813,0.6813,0,0,0.6395,0.6428,0.6441,0.6488,0.6514,0.6536,0.6559,0.6583,0.6599,0.6636,0.6662,0.6685,0.6722,0.6744,0.6755,0.6763,0.6777,0.6781,0.6779,0.6781,0.679,0.6787,0.6785,0.6813,0.6813,0.6813,0,0,0.6388,0.6416,0.6434,0.6458,0.6496,0.6521,0.6525,0.6569,0.6586,0.6612,0.6639,0.6658,0.6704,0.6727,0.6745,0.6741,0.676,0.6748,0.6733,0.674,0.6739,0.6737,0.6733,0.6731,0.6748,0.6748,0.6748,0,0.6371,0.6407,0.644,0.6461,0.6479,0.6512,0.6528,0.6551,0.6595,0.6606,0.6615,0.6669,0.6696,0.6722,0.672,0.6734,0.6738,0.6743,0.6736,0.6735,0.6734,0.673,0.6729,0.6747,0.6747,0.6747,0.6747,0,0.6382,0.6406,0.6415,0.6456,0.6475,0.6494,0.6528,0.6544,0.6563,0.6586,0.6611,0.6643,0.6675,0.6683,0.6704,0.6711,0.6714,0.6729,0.6743,0.6729,0.6726,0.6726,0.6744,0.6745,0.6745,0.6746,0,0,0.6358,0.6413,0.6416,0.6432,0.6474,0.6493,0.6511,0.6541,0.6552,0.6581,0.6596,0.663,0.6643,0.6662,0.6685,0.6692,0.6682,0.6705,0.6706,0.6697,0.6689,0.6677,0.6675,0.6695,0.6695,0.6695,0.6685,0,0.6356,0.6391,0.6419,0.6442,0.6463,0.6491,0.6507,0.6533,0.6555,0.6574,0.6598,0.6621,0.6637,0.6648,0.6656,0.6682,0.6681,0.6683,0.6707,0.6708,0.6696,0.6674,0.6662,0.6651,0.6684,0.6684,0.6684,0,0.6359,0.6384,0.6409,0.6444,0.6454,0.6467,0.6495,0.6514,0.6542,0.6557,0.6577,0.6599,0.6617,0.6629,0.6653,0.6654,0.6665,0.6679,0.6679,0.6682,0.6695,0.6674,0.6649,0.6647,0.6683,0.6683,0.6684,0,0.6336,0.6376,0.6395,0.6408,0.6451,0.6459,0.6477,0.6506,0.6521,0.6544,0.6554,0.658,0.6593,0.6612,0.6639,0.6646,0.6659,0.6675,0.667,0.6669,0.6672,0.6671,0.6646,0.6681,0.6681,0.6681,0.6681,0,0.633,0.6344,0.6384,0.6396,0.641,0.6441,0.6455,0.6475,0.65,0.6514,0.6541,0.6554,0.659,0.6606,0.6628,0.6642,0.6649,0.666,0.6666,0.6657,0.6655,0.6665,0.6666,0.6681,0.6681,0.6681,0.6681,0,0.6307,0.6335,0.6357,0.6394,0.6403,0.6412,0.6443,0.6454,0.6475,0.6493,0.6499,0.6532,0.6553,0.6582,0.6612,0.6626,0.6636,0.6646,0.6626,0.6629,0.6623,0.6622,0.6602,0.66,0.6637,0.6637,0.6636,0,0.6302,0.6312,0.6348,0.6359,0.6376,0.6394,0.6408,0.6438,0.6451,0.6482,0.6488,0.651,0.653,0.656,0.6587,0.6608,0.6618,0.6609,0.6621,0.6611,0.6615,0.6613,0.6613,0.6606,0.6605,0.6605,0.6604,0,0.6288,0.6299,0.6319,0.6341,0.6357,0.6377,0.6398,0.6405,0.6438,0.6452,0.6472,0.6486,0.6514,0.6535,0.6559,0.6577,0.6595,0.66,0.66,0.6591,0.6578,0.6582,0.6617,0.6601,0.6601,0.6601,0.6601,0.6602,0.6272,0.6281,0.6307,0.6326,0.6344,0.6361,0.6372,0.6393,0.641,0.6435,0.6451,0.6469,0.6493,0.6528,0.6543,0.6557,0.6565,0.6566,0.6566,0.6565,0.656,0.6576,0.6562,0.6562,0.6562,0.6563,0.6563,0,0.6258,0.6274,0.6291,0.6318,0.6332,0.6347,0.6369,0.638,0.6395,0.6416,0.6433,0.6454,0.6472,0.6498,0.6519,0.6524,0.6533,0.6528,0.6528,0.6531,0.6554,0.6551,0.6521,0.6521,0.6521,0.6521,0.6521,0.6521,0.6252,0.6266,0.628,0.6302,0.6319,0.6336,0.6347,0.6362,0.6378,0.64,0.6415,0.6431,0.6453,0.6474,0.6491,0.6498,0.6503,0.6495,0.6505,0.6526,0.653,0.6533,0.6531,0.6497,0.6497,0.6481,0.648,0.648]}]]